Location: LDNL
(36.4545°S, 141.6685°E)
Time: 08:00:06
(UTC+11:00)

ISS - Pass Details

Date: 10 December 2022
Orbit: 412 x 423 km, 51.6° (Epoch: 07 February)

Event Time Altitude Azimuth Distance (km) Brightness Sun altitude
Rises 22:51:02 0° 309° (NW) 2,394 0.1 -20.2°
Reaches altitude 10° 22:53:07 10° 307° (NW) 1,538 -0.9 -20.5°
Maximum altitude 22:56:35 75° 221° (SW) 459 -3.6 -20.9°
Drops below altitude 10° 23:00:07 10° 134° (SE) 1,569 -0.8 -21.3°
Sets 23:02:16 0° 132° (SE) 2,448 0.2 -21.6°
